Location: B?ogocice
(50.2413°N, 20.2361°E)
Time: 13:52:38
(UTC+00:00)

SL-12 R/B(2) - Pass Details

Date: 15 June 2024
Orbit: 1193 x 2155 km, 63.4° (Epoch: 15 July)

Event Time Altitude Azimuth Distance (km) Brightness Sun altitude
Exits shadow 00:09:31 14° 225° (SW) 3,073 5.5 -13.8°
Maximum altitude 00:16:53 84° 315° (NW) 1,523 4.5 -13.3°
Drops below altitude 10° 00:27:02 10° 44° (NE) 4,084 8.0 -12.7°
Sets 00:30:31 0° 46° (NE) 5,211 8.8 -12.4°
